Weather in Verhnya Salda

Russia / Sverdlovsk Oblast     58°02′47″N   60°33′21″E
temp.,
°C
wind,
m/s
gust,
m/s
humid.,
%
clouds,
%
prec.,
mm/h
press.,
hPa
HPBL,
m
6 march, sat
sat623:00−11w4129030 0.0 1000438
02:00−13w513870 0.0 1001497
05:00−15w411910 0.0 1003307
08:00−15wsw4119323 0.0 1004329
11:00−10w598344 0.0 10051136
14:00−9w61078100 0.1 10061376
17:00−10w5980100 0.2 10061067
20:00−15w4119062 0.0 1008366
7 march, sun
sun723:00−17w389431 0.0 1010177
02:00−20wsw23970 0.0 101068
05:00−21wsw35970 0.0 101188
08:00−22wsw35970 0.0 101192
11:00−15wsw24890 0.0 1011322
14:00−11wsw238078 0.0 1009718
17:00−11w138389 0.1 1008725
20:00−17wnw1293100 0.0 100820
8 march, mon
mon823:00−19wnw239575 0.0 100920
02:00−21w23960 0.0 100823
05:00−22wsw23970 0.0 100921
08:00−22wsw23970 0.0 100926
11:00−14sw13853 0.0 1008307
14:00−11sse3584100 0.0 1006539
17:00−10sse4793100 0.3 1004635
20:00−11se41093100 0.2 1003442
9 march, tue
tue923:00−11s3994100 0.3 1003281
02:00−12s349595 0.0 100287
05:00−12se379498 0.0 1000174
08:00−9ese41094100 1.9 997647
11:00−10w7118898 2.4 998750
14:00−10nw368897 0.1 1000476
17:00−11n359097 0.2 1002350
20:00−15n239694 0.1 100485
10 march, wed
wed1023:00−19n119887 0.1 100620
02:00−21nne1110082 0.0 100720
05:00−20ne129991 0.1 100828
08:00−21ne229995 0.1 100882
11:00−17ne129198 0.3 1008299
14:00−13ne1188100 0.3 1008411
17:00−13nne2392100 0.6 1007320
20:00−16n249796 0.2 1007137